Time,TemperatureF,DewpointF,PressureIn,WindDirection,WindDirectionDegrees,WindSpeedMPH,WindSpeedGustMPH,Humidity,HourlyPrecipIn,Conditions,Clouds,dailyrainin,SoftwareType,DateUTC
2013-07-04 00:02:00,60.0,58.0,30.24,South,186,0.0,0.0,92,0.00,,,4.74,,2013-07-04 04:02:00,
2013-07-04 00:11:00,61.0,59.0,30.24,South,186,0.0,0.0,92,0.00,,,4.74,,2013-07-04 04:11:00,
2013-07-04 00:33:00,61.0,59.0,30.25,South,186,0.0,0.0,93,0.00,,,4.74,,2013-07-04 04:33:00,
2013-07-04 00:52:00,61.0,59.0,30.25,South,186,0.0,1.0,94,0.00,,,4.74,,2013-07-04 04:52:00,
2013-07-04 01:02:00,62.0,60.0,30.25,South,186,0.0,2.0,94,0.00,,,4.74,,2013-07-04 05:02:00,
2013-07-04 01:12:00,62.0,60.0,30.24,South,186,0.0,1.0,93,0.00,,,4.74,,2013-07-04 05:12:00,
2013-07-04 01:33:00,62.0,60.0,30.24,South,186,0.0,1.0,93,0.00,,,4.71,,2013-07-04 05:33:00,
2013-07-04 01:43:00,61.0,59.0,30.23,South,187,0.0,1.0,92,0.02,,,4.73,,2013-07-04 05:43:00,
2013-07-04 02:01:00,61.0,59.0,30.23,South,187,0.0,2.0,93,0.05,,,4.76,,2013-07-04 06:01:00,
2013-07-04 02:11:00,60.0,59.0,30.23,South,187,0.0,0.0,95,0.05,,,4.76,,2013-07-04 06:11:00,
2013-07-04 02:22:00,60.0,59.0,30.22,South,187,0.0,3.0,95,0.05,,,4.76,,2013-07-04 06:22:00,
2013-07-04 02:34:00,60.0,59.0,30.22,South,187,0.0,3.0,95,0.05,,,4.76,,2013-07-04 06:34:00,
2013-07-04 02:43:00,60.0,59.0,30.22,South,187,0.0,2.0,96,0.03,,,4.76,,2013-07-04 06:43:00,
2013-07-04 02:52:00,60.0,59.0,30.23,South,187,0.0,2.0,96,0.00,,,4.76,,2013-07-04 06:52:00,
2013-07-04 03:02:00,60.0,59.0,30.23,South,187,0.0,2.0,96,0.00,,,4.76,,2013-07-04 07:02:00,
2013-07-04 03:12:00,60.0,59.0,30.22,South,187,0.0,3.0,96,0.00,,,4.76,,2013-07-04 07:12:00,
2013-07-04 03:22:00,60.0,59.0,30.22,South,187,0.0,2.0,96,0.00,,,4.76,,2013-07-04 07:22:00,
2013-07-04 03:34:00,60.0,59.0,30.22,South,187,0.0,2.0,96,0.00,,,4.76,,2013-07-04 07:34:00,
2013-07-04 03:43:00,60.0,59.0,30.21,South,187,1.0,2.0,96,0.01,,,4.76,,2013-07-04 07:43:00,
2013-07-04 03:52:00,60.0,59.0,30.21,South,187,1.0,2.0,96,0.01,,,4.76,,2013-07-04 07:52:00,
2013-07-04 04:02:00,60.0,59.0,30.21,South,187,0.0,3.0,97,0.03,,,4.79,,2013-07-04 08:02:00,
2013-07-04 04:11:00,60.0,59.0,30.23,South,189,0.0,1.0,97,0.23,,,4.99,,2013-07-04 08:11:00,
2013-07-04 04:22:00,60.0,59.0,30.23,South,189,0.0,1.0,97,0.23,,,4.99,,2013-07-04 08:22:00,
2013-07-04 04:33:00,60.0,59.0,30.22,South,190,0.0,1.0,97,0.49,,,5.25,,2013-07-04 08:33:00,
2013-07-04 04:42:00,60.0,59.0,30.22,South,190,0.0,1.0,97,0.49,,,5.25,,2013-07-04 08:42:00,
2013-07-04 04:53:00,60.0,59.0,30.22,South,190,0.0,1.0,97,0.49,,,5.25,,2013-07-04 08:53:00,
2013-07-04 05:02:00,60.0,59.0,30.22,South,190,0.0,1.0,97,0.49,,,5.25,,2013-07-04 09:02:00,
2013-07-04 05:11:00,61.0,60.0,30.19,South,190,0.0,2.0,97,0.32,,,5.32,,2013-07-04 09:11:00,
2013-07-04 05:22:00,61.0,60.0,30.21,South,190,0.0,1.0,97,0.07,,,5.32,,2013-07-04 09:22:00,
2013-07-04 05:32:00,61.0,60.0,30.21,South,190,0.0,1.0,97,0.07,,,5.32,,2013-07-04 09:32:00,
2013-07-04 05:42:00,61.0,60.0,30.22,South,190,0.0,1.0,97,0.03,,,5.32,,2013-07-04 09:42:00,
2013-07-04 05:52:00,61.0,60.0,30.22,South,190,0.0,1.0,97,0.03,,,5.32,,2013-07-04 09:52:00,
2013-07-04 06:01:00,61.0,60.0,30.22,South,190,0.0,0.0,97,0.00,,,5.32,,2013-07-04 10:01:00,
2013-07-04 06:11:00,61.0,60.0,30.22,South,190,0.0,0.0,97,0.00,,,5.32,,2013-07-04 10:11:00,
2013-07-04 06:34:00,61.0,60.0,30.23,South,189,0.0,2.0,97,0.03,,,5.34,,2013-07-04 10:34:00,
2013-07-04 06:43:00,61.0,60.0,30.22,South,190,1.0,3.0,97,0.03,,,5.34,,2013-07-04 10:43:00,
2013-07-04 06:53:00,61.0,60.0,30.22,South,190,1.0,3.0,97,0.03,,,5.34,,2013-07-04 10:53:00,
2013-07-04 07:02:00,61.0,60.0,30.23,South,190,0.0,2.0,97,0.03,,,5.34,,2013-07-04 11:02:00,
2013-07-04 07:11:00,61.0,60.0,30.23,South,190,0.0,2.0,97,0.03,,,5.34,,2013-07-04 11:11:00,
2013-07-04 07:22:00,61.0,60.0,30.23,South,190,0.0,2.0,97,0.03,,,5.34,,2013-07-04 11:22:00,
2013-07-04 07:34:00,62.0,61.0,30.23,South,191,0.0,2.0,97,0.00,,,5.31,,2013-07-04 11:34:00,
2013-07-04 07:43:00,62.0,61.0,30.24,South,190,0.0,1.0,97,0.00,,,5.31,,2013-07-04 11:43:00,
2013-07-04 07:53:00,62.0,61.0,30.24,South,190,0.0,1.0,97,0.00,,,5.31,,2013-07-04 11:53:00,
2013-07-04 08:02:00,62.0,61.0,30.24,South,190,0.0,2.0,97,0.00,,,5.31,,2013-07-04 12:02:00,
2013-07-04 08:12:00,63.0,62.0,30.24,South,189,0.0,1.0,97,0.00,,,5.31,,2013-07-04 12:12:00,
2013-07-04 08:33:00,62.0,61.0,30.25,South,190,0.0,0.0,97,0.01,,,5.25,,2013-07-04 12:33:00,
2013-07-04 08:43:00,62.0,61.0,30.25,South,191,0.0,0.0,97,0.17,,,5.41,,2013-07-04 12:43:00,
2013-07-04 08:52:00,62.0,61.0,30.25,South,191,0.0,0.0,97,0.17,,,5.41,,2013-07-04 12:52:00,
2013-07-04 09:12:00,62.0,61.0,30.26,South,191,0.0,1.0,97,0.28,,,5.53,,2013-07-04 13:12:00,
2013-07-04 09:33:00,62.0,61.0,30.26,South,191,0.0,0.0,97,0.32,,,5.31,,2013-07-04 13:33:00,
2013-07-04 09:43:00,63.0,62.0,30.25,SSW,193,0.0,2.0,97,0.16,,,5.34,,2013-07-04 13:43:00,
2013-07-04 09:53:00,63.0,62.0,30.25,SSW,193,0.0,2.0,97,0.16,,,5.34,,2013-07-04 13:53:00,
2013-07-04 10:02:00,63.0,62.0,30.25,SSW,193,1.0,3.0,97,0.13,,,5.36,,2013-07-04 14:02:00,
2013-07-04 10:12:00,63.0,62.0,30.26,SSW,193,0.0,1.0,97,0.09,,,5.36,,2013-07-04 14:12:00,
2013-07-04 10:22:00,63.0,62.0,30.25,SSW,193,0.0,1.0,97,0.05,,,5.22,,2013-07-04 14:22:00,
2013-07-04 10:33:00,63.0,62.0,30.25,SSW,193,0.0,1.0,97,0.05,,,5.22,,2013-07-04 14:33:00,
2013-07-04 10:43:00,63.0,62.0,30.25,SSW,193,0.0,2.0,97,0.05,,,5.25,,2013-07-04 14:43:00,
2013-07-04 10:53:00,64.0,63.0,30.26,SSW,193,0.0,2.0,97,0.03,,,5.25,,2013-07-04 14:53:00,
2013-07-04 11:02:00,64.0,63.0,30.26,SSW,193,0.0,2.0,97,0.03,,,5.25,,2013-07-04 15:02:00,
2013-07-04 11:11:00,64.0,63.0,30.26,SSW,193,0.0,2.0,97,0.03,,,5.25,,2013-07-04 15:11:00,
2013-07-04 11:23:00,65.0,64.0,30.26,SSW,193,0.0,2.0,97,0.06,,,4.86,,2013-07-04 15:23:00,
2013-07-04 11:33:00,65.0,64.0,30.26,SSW,193,0.0,2.0,97,0.06,,,4.86,,2013-07-04 15:33:00,
2013-07-04 11:43:00,64.0,63.0,30.26,SSW,193,0.0,2.0,97,0.04,,,4.87,,2013-07-04 15:43:00,
2013-07-04 11:52:00,65.0,64.0,30.25,SSW,193,0.0,1.0,97,0.04,,,4.87,,2013-07-04 15:52:00,
2013-07-04 12:02:00,65.0,64.0,30.25,SSW,193,0.0,1.0,97,0.04,,,4.87,,2013-07-04 16:02:00,
2013-07-04 12:11:00,65.0,64.0,30.25,SSW,193,0.0,1.0,97,0.04,,,4.87,,2013-07-04 16:11:00,
2013-07-04 12:22:00,65.0,64.0,30.25,SSW,193,0.0,1.0,97,0.04,,,4.87,,2013-07-04 16:22:00,
2013-07-04 12:33:00,65.0,64.0,30.25,SSW,193,0.0,2.0,97,0.02,,,4.88,,2013-07-04 16:33:00,
2013-07-04 12:43:00,65.0,64.0,30.25,SSW,193,0.0,5.0,97,0.01,,,4.88,,2013-07-04 16:43:00,
2013-07-04 12:52:00,65.0,64.0,30.25,SSW,193,0.0,5.0,97,0.01,,,4.88,,2013-07-04 16:52:00,
2013-07-04 13:02:00,65.0,64.0,30.25,SSW,193,0.0,3.0,97,0.04,,,4.91,,2013-07-04 17:02:00,
2013-07-04 13:12:00,65.0,64.0,30.25,SSW,193,0.0,2.0,97,0.08,,,4.96,,2013-07-04 17:12:00,
2013-07-04 13:34:00,65.0,64.0,30.25,SSW,193,1.0,5.0,97,0.08,,,4.86,,2013-07-04 17:34:00,
2013-07-04 13:43:00,66.0,65.0,30.24,SSW,193,0.0,2.0,97,0.08,,,4.86,,2013-07-04 17:43:00,
2013-07-04 14:01:00,67.0,66.0,30.24,SSW,193,0.0,3.0,97,0.07,,,4.88,,2013-07-04 18:01:00,
2013-07-04 14:11:00,67.0,66.0,30.23,SSW,193,0.0,3.0,97,0.02,,,4.88,,2013-07-04 18:11:00,
2013-07-04 14:33:00,68.0,67.0,30.23,SSW,193,0.0,2.0,97,0.02,,,4.38,,2013-07-04 18:33:00,
2013-07-04 14:43:00,68.0,67.0,30.22,SSW,193,0.0,2.0,97,0.02,,,4.38,,2013-07-04 18:43:00,
2013-07-04 15:02:00,68.0,67.0,30.22,SSW,193,0.0,4.0,97,0.00,,,4.38,,2013-07-04 19:02:00,
2013-07-04 15:12:00,68.0,67.0,30.22,SSW,195,1.0,4.0,97,0.00,,,4.38,,2013-07-04 19:12:00,
2013-07-04 15:22:00,68.0,67.0,30.22,SSW,195,1.0,4.0,97,0.00,,,4.38,,2013-07-04 19:22:00,
2013-07-04 15:33:00,66.0,65.0,30.22,SSW,194,1.0,4.0,96,0.17,,,4.55,,2013-07-04 19:33:00,
2013-07-04 15:43:00,66.0,65.0,30.22,SSW,195,0.0,4.0,97,0.26,,,4.65,,2013-07-04 19:43:00,
2013-07-04 15:53:00,66.0,65.0,30.22,SSW,195,0.0,4.0,97,0.26,,,4.65,,2013-07-04 19:53:00,
2013-07-04 16:02:00,66.0,65.0,30.22,SSW,195,0.0,2.0,97,0.32,,,4.71,,2013-07-04 20:02:00,
2013-07-04 16:11:00,67.0,66.0,30.21,SSW,195,0.0,1.0,97,0.32,,,4.71,,2013-07-04 20:11:00,
2013-07-04 16:22:00,67.0,66.0,30.21,SSW,195,0.0,1.0,97,0.32,,,4.71,,2013-07-04 20:22:00,
2013-07-04 16:34:00,67.0,66.0,30.21,SSW,195,0.0,3.0,97,0.15,,,4.63,,2013-07-04 20:34:00,
2013-07-04 16:42:00,68.0,67.0,30.21,SSW,195,0.0,3.0,96,0.06,,,4.63,,2013-07-04 20:42:00,
2013-07-04 16:53:00,68.0,67.0,30.21,SSW,195,0.0,3.0,96,0.06,,,4.63,,2013-07-04 20:53:00,
2013-07-04 17:01:00,69.0,68.0,30.20,SSW,195,0.0,3.0,95,0.00,,,4.63,,2013-07-04 21:01:00,
2013-07-04 17:11:00,68.0,66.0,30.20,SSW,195,0.0,1.0,94,0.00,,,4.63,,2013-07-04 21:11:00,
2013-07-04 17:22:00,68.0,66.0,30.20,SSW,195,0.0,1.0,94,0.00,,,4.63,,2013-07-04 21:22:00,
2013-07-04 17:32:00,67.0,65.0,30.21,SSW,203,2.0,10.0,92,0.00,,,3.34,,2013-07-04 21:32:00,
2013-07-04 17:43:00,65.0,64.0,30.23,SSW,198,1.0,7.0,95,0.01,,,3.35,,2013-07-04 21:43:00,
2013-07-04 17:53:00,65.0,64.0,30.23,SSW,198,1.0,7.0,95,0.01,,,3.35,,2013-07-04 21:53:00,
2013-07-04 18:02:00,65.0,64.0,30.22,SSW,195,1.0,7.0,96,0.04,,,3.38,,2013-07-04 22:02:00,
2013-07-04 18:12:00,65.0,64.0,30.22,SSW,194,0.0,4.0,96,0.04,,,3.38,,2013-07-04 22:12:00,
2013-07-04 18:22:00,65.0,64.0,30.22,SSW,194,0.0,4.0,96,0.04,,,3.38,,2013-07-04 22:22:00,
2013-07-04 18:33:00,66.0,65.0,30.21,SSW,195,0.0,3.0,97,0.05,,,2.67,,2013-07-04 22:33:00,
2013-07-04 18:43:00,66.0,65.0,30.21,SSW,195,0.0,3.0,97,0.05,,,2.68,,2013-07-04 22:43:00,
2013-07-04 18:52:00,66.0,65.0,30.21,SSW,195,0.0,3.0,97,0.05,,,2.68,,2013-07-04 22:52:00,
2013-07-04 19:01:00,66.0,65.0,30.21,SSW,194,0.0,2.0,97,0.02,,,2.68,,2013-07-04 23:01:00,
2013-07-04 19:12:00,66.0,65.0,30.21,SSW,195,0.0,3.0,97,0.02,,,2.68,,2013-07-04 23:12:00,
2013-07-04 19:23:00,66.0,65.0,30.21,SSW,195,0.0,3.0,97,0.02,,,2.68,,2013-07-04 23:23:00,
2013-07-04 19:33:00,66.0,65.0,30.21,SSW,195,0.0,3.0,97,0.02,,,2.68,,2013-07-04 23:33:00,
2013-07-04 19:43:00,65.0,64.0,30.22,South,186,0.0,7.0,96,0.04,,,1.85,,2013-07-04 23:43:00,
2013-07-04 19:52:00,65.0,64.0,30.22,South,186,0.0,7.0,96,0.04,,,1.85,,2013-07-04 23:52:00,
2013-07-04 20:01:00,65.0,64.0,30.22,South,186,0.0,7.0,96,0.04,,,1.85,,2013-07-05 00:01:00,
2013-07-04 20:10:00,64.0,63.0,30.22,South,188,0.0,3.0,96,0.16,,,1.82,,2013-07-05 00:10:00,
2013-07-04 20:12:00,64.0,63.0,30.22,South,188,0.0,2.0,96,0.12,,,1.93,,2013-07-05 00:12:00,
2013-07-04 20:22:00,64.0,63.0,30.22,South,188,0.0,2.0,96,0.12,,,1.93,,2013-07-05 00:22:00,
2013-07-04 20:32:00,64.0,63.0,30.22,South,188,0.0,3.0,96,0.16,,,1.82,,2013-07-05 00:32:00,
2013-07-04 20:43:00,64.0,63.0,30.22,South,188,0.0,3.0,96,0.16,,,1.82,,2013-07-05 00:43:00,
2013-07-04 20:52:00,64.0,63.0,30.22,South,188,0.0,3.0,96,0.16,,,1.82,,2013-07-05 00:52:00,
2013-07-04 21:01:00,64.0,63.0,30.22,South,188,0.0,3.0,96,0.16,,,1.82,,2013-07-05 01:01:00,
2013-07-04 21:22:00,64.0,63.0,30.22,South,190,0.0,2.0,97,0.12,,,1.92,,2013-07-05 01:22:00,
2013-07-04 21:42:00,64.0,63.0,30.22,South,190,0.0,2.0,97,0.12,,,1.92,,2013-07-05 01:42:00,
2013-07-04 21:52:00,64.0,63.0,30.22,South,190,0.0,2.0,97,0.12,,,1.92,,2013-07-05 01:52:00,
2013-07-04 22:02:00,64.0,63.0,30.22,South,190,0.0,2.0,97,0.12,,,1.92,,2013-07-05 02:02:00,
2013-07-04 22:11:00,64.0,63.0,30.22,South,190,0.0,2.0,97,0.12,,,1.92,,2013-07-05 02:11:00,
2013-07-04 23:02:00,64.0,63.0,30.24,SSW,195,0.0,2.0,97,0.04,,,2.29,,2013-07-05 03:02:00,
2013-07-04 23:11:00,64.0,63.0,30.24,SSW,195,0.0,2.0,97,0.04,,,2.29,,2013-07-05 03:11:00,
2013-07-04 23:22:00,64.0,63.0,30.24,SSW,195,0.0,2.0,97,0.04,,,2.29,,2013-07-05 03:22:00,
2013-07-04 23:33:00,64.0,63.0,30.24,SSW,195,0.0,2.0,97,0.04,,,2.29,,2013-07-05 03:33:00,
2013-07-04 23:42:00,64.0,63.0,30.24,SSW,194,0.0,2.0,97,0.00,,,2.29,,2013-07-05 03:42:00,
2013-07-04 23:52:00,64.0,63.0,30.24,SSW,194,0.0,2.0,97,0.00,,,2.29,,2013-07-05 03:52:00,